Powrót do katalogu

SL-8 DEB

AktywnyPO
NORAD 29285·DEBRIS·🇷🇺 Russia

Wystrzelony Dec 17, 1981 z Plesetsk Cosmodrome

Loading…

Następne Przeloty (najbliższe 24 godziny)

TLE

ŚwieżeSource: Space-Track

Epoka: Sep 13, 2026, 18:22 UTC

1 29285U 81120P   26256.76554560  .00000024  00000-0  15592-3 0  9998
2 29285  82.9514 257.1835 0046279 271.4873 266.0233 12.13436923587015

Śledź SL-8 DEB w czasie rzeczywistym z AllMySat

Download on the App Store